Location: Unspecified
(0.0000°N, 0.0000°E)
Time: 16:12:12
(UTC+00:00)

Envisat - Visible Passes

Search period start: 25 September 2021 00:00
Search period end: 05 October 2021 00:00
Orbit: 764 x 766 km, 98.2° (Epoch: 25 September)

Date Brightness Start Highest point End Pass type
(mag) Time Alt. Az. Time Alt. Az. Time Alt. Az.
25 Sep 4.7 04:12:24 10° NE 04:16:54 33° ESE 04:21:24 10° SSE visible
26 Sep 6.1 03:38:44 10° E 03:40:11 11° ESE 03:41:38 10° ESE visible
26 Sep 3.4 05:14:11 10° N 05:18:54 41° WNW 05:23:39 10° SSW visible
27 Sep 3.3 04:37:07 10° NNE 04:42:09 69° ESE 04:47:12 10° S visible
28 Sep 5.3 04:01:24 10° NE 04:05:25 24° ESE 04:09:26 10° SSE visible
29 Sep 3.0 05:02:28 10° N 05:07:25 56° WNW 05:12:23 10° SSW visible
30 Sep 3.9 04:25:47 10° NNE 04:30:40 50° ESE 04:35:35 10° S visible
01 Oct 5.7 03:50:39 10° ENE 03:53:57 18° ESE 03:57:15 10° SE visible
02 Oct 2.9 04:50:53 10° N 04:55:56 78° WNW 05:01:00 10° SSW visible
03 Oct 4.6 04:14:34 10° NE 04:19:12 36° ESE 04:23:49 10° SSE visible
04 Oct 6.1 03:40:22 10° ENE 03:42:29 13° ESE 03:44:35 10° SE visible
04 Oct 3.5 05:16:34 10° NNW 05:21:12 37° WNW 05:25:51 10° SW visible
